DW5164 Weather Reports


time (UTC)temp
C
wind
direction
speed
KPH
gust
KPH
rain 1hr
cm
rain 24hr
cm
rain mn
cm
humidity
%
barometer
mb
20260507235542 15 68 8.0 12.9 0.00 0.00 0.00 89 1013.8
20260507235042 15 73 6.4 12.9 0.00 0.00 0.00 89 1013.8
20260507234542 15 79 6.4 11.3 0.00 0.00 0.00 89 1013.8
20260507234042 15 60 8.0 11.3 0.00 0.00 0.00 88 1013.9
20260507233542 15 68 8.0 11.3 0.00 0.00 0.00 88 1014.0
20260507232542 15 74 8.0 11.3 0.00 0.00 0.00 88 1013.9
20260507232042 15 70 9.7 11.3 0.00 0.00 0.00 88 1013.9
20260507231542 15 78 8.0 11.3 0.00 0.00 0.00 87 1013.9
20260507231043 15 66 8.0 11.3 0.00 0.00 0.00 87 1013.9
20260507230542 15 70 6.4 12.9 0.00 0.00 0.00 87 1013.9
20260507230042 15 73 4.8 11.3 0.00 0.00 0.00 86 1013.9
20260507225542 15 50 8.0 19.3 0.00 0.00 0.00 86 1013.7
20260507225042 16 58 11.3 16.1 0.00 0.00 0.00 86 1013.8
20260507224542 16 64 11.3 19.3 0.00 0.00 0.00 85 1013.9
20260507224042 16 69 11.3 19.3 0.00 0.00 0.00 85 1013.9
20260507223558 16 72 9.7 19.3 0.00 0.00 0.00 85 1013.9
20260507223041 16 85 9.7 14.5 0.00 0.00 0.00 85 1013.8
20260507222542 16 82 9.7 22.5 0.00 0.00 0.00 85 1013.7
20260507221042 16 66 9.7 19.3 0.00 0.00 0.00 84 1013.5
20260507215542 16 71 8.0 12.9 0.00 0.00 0.00 81 1013.6
20260507215041 16 69 8.0 12.9 0.00 0.00 0.00 80 1013.6
20260507214542 16 67 8.0 11.3 0.00 0.00 0.00 79 1013.6
20260507214042 16 65 9.7 12.9 0.00 0.00 0.00 78 1013.6
20260507213542 16 67 8.0 12.9 0.00 0.00 0.00 78 1013.5
20260507213047 17 82 4.8 11.3 0.00 0.00 0.00 78 1013.4
20260507212541 17 94 6.4 12.9 0.00 0.00 0.00 79 1013.4
20260507212042 17 73 8.0 11.3 0.00 0.00 0.00 79 1013.4
20260507211543 17 69 4.8 8.0 0.00 0.00 0.00 79 1013.4
20260507211041 16 100 6.4 11.3 0.00 0.00 0.00 80 1013.3
20260507210041 16 62 8.0 14.5 0.00 0.00 0.00 80 1013.3
20260507205541 16 69 4.8 9.7 0.00 0.00 0.00 80 1013.3
20260507205041 16 83 3.2 4.8 0.00 0.00 0.00 80 1013.2
20260507204041 16 107 6.4 11.3 0.00 0.00 0.00 80 1013.1
20260507203042 16 106 0.0 1.6 0.00 0.00 0.00 80 1013.0
20260507202541 16 106 0.0 1.6 0.00 0.00 0.00 80 1013.0
20260507202041 16 106 0.0 1.6 0.00 0.00 0.00 79 1012.9
20260507201556 16 106 0.0 3.2 0.00 0.00 0.00 79 1012.9
20260507201041 16 106 4.8 4.8 0.00 0.00 0.00 77 1012.9
20260507200541 16 73 3.2 4.8 0.00 0.00 0.00 78 1012.8
20260507200041 16 15 0.0 0.0 0.00 0.00 0.00 77 1012.7
20260507195541 16 15 0.0 1.6 0.00 0.00 0.00 77 1012.7
20260507194545 17 15 3.2 3.2 0.00 0.00 0.00 76 1012.6
20260507194041 17 15 3.2 3.2 0.00 0.00 0.00 75 1012.5
20260507193041 17 15 1.6 4.8 0.00 0.00 0.00 75 1012.5
20260507192541 17 15 1.6 3.2 0.00 0.00 0.00 74 1012.4
20260507192044 17 15 0.0 0.0 0.00 0.00 0.00 74 1012.3
20260507191544 17 15 0.0 0.0 0.00 0.00 0.00 74 1012.3
20260507191046 18 15 0.0 0.0 0.00 0.00 0.00 73 1012.2
20260507190541 18 15 0.0 1.6 0.00 0.00 0.00 73 1012.2
20260507190041 18 15 1.6 3.2 0.00 0.00 0.00 72 1012.1
20260507185541 18 9 1.6 3.2 0.00 0.00 0.00 73 1012.2
20260507185041 18 9 0.0 1.6 0.00 0.00 0.00 73 1012.2
20260507184541 18 9 0.0 0.0 0.00 0.00 0.00 71 1012.1
20260507184040 18 9 0.0 0.0 0.00 0.00 0.00 71 1012.1
20260507183541 18 20 0.0 0.0 0.00 0.00 0.00 69 1012.0
20260507183042 19 20 0.0 0.0 0.00 0.00 0.00 69 1011.9
20260507182541 19 20 0.0 0.0 0.00 0.00 0.00 67 1011.8
20260507182041 20 20 0.0 0.0 0.00 0.00 0.00 67 1011.7
20260507181541 20 20 0.0 0.0 0.00 0.00 0.00 66 1011.6
20260507181043 20 20 0.0 0.0 0.00 0.00 0.00 64 1011.6
20260507180040 21 2 0.0 3.2 0.00 0.00 0.00 60 1011.6
20260507175541 21 255 1.6 3.2 0.00 0.00 0.00 56 1011.5
20260507174542 21 228 0.0 3.2 0.00 0.00 0.00 55 1011.4
20260507174041 21 225 0.0 3.2 0.00 0.00 0.00 57 1011.3
20260507173542 21 225 1.6 3.2 0.00 0.00 0.00 55 1011.2
20260507173041 21 220 1.6 3.2 0.00 0.00 0.00 54 1011.2
20260507172541 22 220 3.2 4.8 0.00 0.00 0.00 54 1011.2
20260507172044 22 220 3.2 4.8 0.00 0.00 0.00 54 1011.2
20260507171544 22 241 1.6 8.0 0.00 0.00 0.00 54 1011.2
20260507170541 22 237 6.4 8.0 0.00 0.00 0.00 53 1011.1
20260507170040 22 227 1.6 4.8 0.00 0.00 0.00 53 1011.0
20260507165540 22 225 4.8 4.8 0.00 0.00 0.00 52 1011.0
20260507165040 22 276 3.2 9.7 0.00 0.00 0.00 53 1011.1
20260507164041 22 240 4.8 9.7 0.00 0.00 0.00 52 1011.1
20260507163041 22 235 3.2 9.7 0.00 0.00 0.00 52 1011.0
20260507162540 23 236 4.8 8.0 0.00 0.00 0.00 53 1011.1
20260507161540 23 271 6.4 11.3 0.00 0.00 0.00 51 1011.1
20260507161041 23 248 4.8 9.7 0.00 0.00 0.00 53 1011.1
20260507160547 22 266 8.0 12.9 0.00 0.00 0.00 53 1011.2
20260507160040 22 246 4.8 8.0 0.00 0.00 0.00 54 1011.2
20260507155541 22 318 1.6 11.3 0.00 0.00 0.00 55 1011.2
20260507154540 22 314 1.6 9.7 0.00 0.00 0.00 55 1011.1
20260507154041 22 311 3.2 11.3 0.00 0.00 0.00 54 1011.1
20260507153541 22 293 1.6 3.2 0.00 0.00 0.00 54 1011.2
20260507153040 22 298 4.8 4.8 0.00 0.00 0.00 54 1011.2
20260507152541 22 27 0.0 1.6 0.00 0.00 0.00 54 1011.2
20260507152042 22 278 1.6 4.8 0.00 0.00 0.00 53 1011.2
20260507151540 22 291 3.2 4.8 0.00 0.00 0.00 54 1011.2
20260507150040 22 282 6.4 14.5 0.00 0.00 0.00 54 1011.2
20260507145548 22 111 1.6 4.8 0.00 0.00 0.00 52 1011.2
20260507145040 23 216 3.2 11.3 0.00 0.00 0.00 51 1011.2
20260507144540 23 186 6.4 12.9 0.00 0.00 0.00 51 1011.2
20260507143541 22 350 3.2 4.8 0.00 0.00 0.00 54 1011.2
20260507142540 22 260 4.8 11.3 0.00 0.00 0.00 52 1011.3
20260507142041 22 290 3.2 4.8 0.00 0.00 0.00 52 1011.3
20260507141540 23 317 4.8 11.3 0.00 0.00 0.00 49 1011.3
20260507141040 23 306 8.0 12.9 0.00 0.00 0.00 50 1011.3
20260507140540 23 260 11.3 14.5 0.00 0.00 0.00 51 1011.3
20260507140042 23 341 4.8 11.3 0.00 0.00 0.00 52 1011.3
20260507135540 23 290 4.8 11.3 0.00 0.00 0.00 50 1011.4
20260507135042 23 291 14.5 20.9 0.00 0.00 0.00 49 1011.4
20260507133540 23 287 8.0 14.5 0.00 0.00 0.00 50 1011.4
20260507132540 23 301 8.0 19.3 0.00 0.00 0.00 49 1011.5
20260507132040 23 320 11.3 19.3 0.00 0.00 0.00 48 1011.5
20260507131540 23 275 8.0 19.3 0.00 0.00 0.00 51 1011.5
20260507131041 23 277 8.0 16.1 0.00 0.00 0.00 52 1011.6
20260507130542 22 287 11.3 19.3 0.00 0.00 0.00 53 1011.6
20260507125540 22 291 9.7 14.5 0.00 0.00 0.00 52 1011.6
20260507125041 23 294 9.7 16.1 0.00 0.00 0.00 54 1011.6
20260507124540 23 310 9.7 16.1 0.00 0.00 0.00 52 1011.6
20260507124040 22 270 4.8 11.3 0.00 0.00 0.00 54 1011.7
20260507123539 23 292 8.0 20.9 0.00 0.00 0.00 51 1011.7
20260507123043 22 301 11.3 19.3 0.00 0.00 0.00 52 1011.6
20260507122540 22 279 9.7 16.1 0.00 0.00 0.00 52 1011.6
20260507122039 22 275 9.7 16.1 0.00 0.00 0.00 53 1011.7
20260507121539 22 293 14.5 19.3 0.00 0.00 0.00 53 1011.8
20260507121040 22 316 8.0 19.3 0.00 0.00 0.00 53 1011.7
20260507120039 22 268 6.4 16.1 0.00 0.00 0.00 57 1011.8
20260507115540 22 296 9.7 19.3 0.00 0.00 0.00 56 1011.9
20260507115041 22 299 11.3 20.9 0.00 0.00 0.00 53 1011.9
20260507114539 22 268 3.2 19.3 0.00 0.00 0.00 56 1011.9
20260507114039 22 311 4.8 11.3 0.00 0.00 0.00 56 1012.0
20260507113543 21 288 8.0 12.9 0.00 0.00 0.00 56 1012.0
20260507113040 22 262 4.8 11.3 0.00 0.00 0.00 56 1012.1
20260507112539 22 291 4.8 9.7 0.00 0.00 0.00 59 1012.2
20260507111540 21 255 1.6 8.0 0.00 0.00 0.00 57 1012.3
20260507111043 21 229 4.8 16.1 0.00 0.00 0.00 60 1012.3
20260507110539 21 238 8.0 16.1 0.00 0.00 0.00 61 1012.3
20260507110039 21 323 4.8 14.5 0.00 0.00 0.00 58 1012.4
20260507105040 20 252 3.2 9.7 0.00 0.00 0.00 63 1012.5
20260507104040 21 222 8.0 16.1 0.00 0.00 0.00 60 1012.5
20260507103539 21 244 8.0 9.7 0.00 0.00 0.00 63 1012.6
20260507103041 21 266 4.8 8.0 0.00 0.00 0.00 62 1012.6
20260507102540 21 236 8.0 14.5 0.00 0.00 0.00 60 1012.6
20260507102040 21 244 8.0 14.5 0.00 0.00 0.00 60 1012.6
20260507101040 21 221 6.4 12.9 0.00 0.00 0.00 63 1012.7
20260507100539 20 238 4.8 8.0 0.00 0.00 0.00 65 1012.7
20260507100039 21 273 4.8 11.3 0.00 0.00 0.00 66 1012.8
20260507095540 20 226 3.2 11.3 0.00 0.00 0.00 66 1012.8
20260507094539 21 270 4.8 14.5 0.00 0.00 0.00 66 1012.8
20260507094047 20 298 8.0 14.5 0.00 0.00 0.00 68 1012.8
20260507093540 20 295 8.0 12.9 0.00 0.00 0.00 65 1012.7
20260507093039 20 224 8.0 14.5 0.00 0.00 0.00 68 1012.7
20260507092540 20 281 6.4 14.5 0.00 0.00 0.00 70 1012.6
20260507092039 20 295 9.7 14.5 0.00 0.00 0.00 70 1012.6
20260507091546 19 285 9.7 19.3 0.00 0.00 0.00 71 1012.6
20260507091040 19 267 8.0 11.3 0.00 0.00 0.00 72 1012.7
20260507090039 19 274 4.8 12.9 0.00 0.00 0.00 75 1012.7
20260507085540 19 231 11.3 19.3 0.00 0.00 0.00 73 1012.7
20260507085039 18 247 8.0 12.9 0.00 0.00 0.00 74 1012.7
20260507084539 18 249 8.0 14.5 0.00 0.00 0.00 74 1012.7
20260507084039 18 279 4.8 19.3 0.00 0.00 0.00 75 1012.7
20260507083539 18 254 11.3 14.5 0.00 0.00 0.00 75 1012.7
20260507083039 18 248 8.0 12.9 0.00 0.00 0.00 77 1012.6
20260507082539 17 268 8.0 11.3 0.00 0.00 0.00 76 1012.6
20260507082040 17 286 8.0 12.9 0.00 0.00 0.00 76 1012.6
20260507081539 17 235 6.4 14.5 0.00 0.00 0.00 77 1012.5
20260507081041 17 271 8.0 11.3 0.00 0.00 0.00 77 1012.5
20260507075546 17 256 6.4 11.3 0.00 0.00 0.00 81 1012.6
20260507075039 17 261 8.0 12.9 0.00 0.00 0.00 82 1012.6
20260507074539 16 262 8.0 11.3 0.00 0.00 0.00 82 1012.6
20260507074039 16 228 6.4 11.3 0.00 0.00 0.00 83 1012.5
20260507073540 16 264 9.7 12.9 0.00 0.00 0.00 84 1012.6
20260507073039 16 229 4.8 12.9 0.00 0.00 0.00 84 1012.6
20260507072544 16 242 8.0 12.9 0.00 0.00 0.00 84 1012.5
20260507071541 15 250 8.0 11.3 0.00 0.00 0.00 85 1012.4
20260507071040 15 265 8.0 14.5 0.00 0.00 0.00 85 1012.4
20260507070539 15 217 3.2 11.3 0.00 0.00 0.00 86 1012.3
20260507070044 15 248 4.8 8.0 0.00 0.00 0.00 86 1012.3
20260507065541 15 273 4.8 8.0 0.00 0.00 0.00 88 1012.3
20260507065039 14 196 3.2 8.0 0.00 0.00 0.00 88 1012.2
20260507064540 14 238 3.2 4.8 0.00 0.00 0.00 89 1012.2
20260507064039 13 247 3.2 4.8 0.00 0.03 0.00 89 1012.2
20260507063539 13 261 1.6 4.8 0.00 0.03 0.00 89 1012.1
20260507063040 13 232 4.8 8.0 0.00 0.03 0.00 88 1012.1
20260507062039 13 250 3.2 8.0 0.00 0.03 0.00 89 1012.1
20260507061039 13 228 4.8 4.8 0.00 0.05 0.00 89 1012.0
20260507060539 13 244 3.2 4.8 0.00 0.05 0.00 89 1011.9
20260507054538 12 279 4.8 4.8 0.00 0.05 0.00 89 1011.9
20260507053539 12 278 1.6 4.8 0.00 0.08 0.00 89 1011.8
20260507052039 11 311 3.2 4.8 0.00 0.13 0.00 89 1011.6
20260507051538 11 267 0.0 3.2 0.00 0.15 0.00 90 1011.5
20260507051040 11 265 1.6 4.8 0.00 0.15 0.00 90 1011.4
20260507050539 11 271 1.6 4.8 0.00 0.15 0.00 90 1011.4
20260507050038 11 276 1.6 3.2 0.00 0.18 0.00 91 1011.3
20260507045539 11 273 1.6 4.8 0.00 0.18 0.00 92 1011.2
20260507045038 10 245 0.0 0.0 0.00 0.20 0.00 92 1011.2
20260507044540 10 246 0.0 0.0 0.00 0.20 0.00 92 1011.1
20260507043538 10 258 0.0 0.0 0.00 0.20 0.00 92 1011.0
20260507043053 10 258 0.0 1.6 0.00 0.20 0.00 92 1011.0
20260507042538 10 259 0.0 1.6 0.00 0.20 0.00 92 1011.1
20260507042038 10 275 0.0 0.0 0.00 0.20 0.00 92 1011.1
20260507041540 10 273 0.0 0.0 0.00 0.23 0.00 92 1011.0
20260507041039 10 273 0.0 3.2 0.00 0.23 0.00 92 1011.0
20260507040539 10 263 3.2 4.8 0.00 0.28 0.00 94 1011.0
20260507040040 10 249 0.0 0.0 0.00 0.28 0.00 94 1011.0
20260507035542 10 254 1.6 3.2 0.00 0.28 0.00 95 1010.9
20260507035038 10 258 1.6 4.8 0.00 0.28 0.00 95 1010.9
20260507034538 10 228 1.6 4.8 0.00 0.28 0.00 95 1010.8
20260507034038 10 252 1.6 3.2 0.00 0.28 0.00 95 1010.8
20260507033538 10 232 1.6 1.6 0.00 0.28 0.00 96 1010.8
20260507033038 10 231 0.0 1.6 0.00 0.28 0.00 96 1010.7
20260507032538 10 237 1.6 4.8 0.00 0.28 0.00 96 1010.6
20260507032038 10 221 3.2 4.8 0.00 0.28 0.00 96 1010.6
20260507031538 10 84 0.0 0.0 0.00 0.28 0.00 96 1010.6
20260507031038 10 84 0.0 0.0 0.00 0.28 0.00 96 1010.6
20260507030539 10 84 0.0 0.0 0.00 0.28 0.00 96 1010.7
20260507030038 10 84 0.0 0.0 0.00 0.28 0.00 95 1010.7
20260507025538 10 84 0.0 0.0 0.00 0.28 0.00 96 1010.7
20260507025038 10 84 0.0 0.0 0.00 0.28 0.00 95 1010.6
20260507024538 10 84 0.0 3.2 0.00 0.28 0.00 96 1010.6
20260507024045 11 232 0.0 0.0 0.00 0.28 0.00 96 1010.6
20260507023540 11 232 0.0 0.0 0.00 0.28 0.00 96 1010.6
20260507023056 11 232 0.0 4.8 0.00 0.28 0.00 96 1010.6
20260507022545 11 173 0.0 3.2 0.00 0.28 0.00 96 1010.6
20260507022038 11 77 0.0 0.0 0.00 0.28 0.00 96 1010.6
20260507021539 11 77 0.0 0.0 0.00 0.28 0.00 96 1010.7
20260507021038 11 77 0.0 0.0 0.00 0.28 0.00 96 1010.7
20260507020539 11 77 0.0 0.0 0.00 0.28 0.00 96 1010.7
20260507020038 11 77 0.0 0.0 0.00 0.28 0.00 95 1010.7
20260507015543 11 77 0.0 0.0 0.00 0.28 0.00 95 1010.6
20260507015045 11 77 0.0 0.0 0.00 0.28 0.00 95 1010.6
20260507014537 11 77 0.0 1.6 0.00 0.28 0.00 95 1010.6
20260507014039 11 77 0.0 3.2 0.00 0.28 0.00 95 1010.6
20260507013538 11 77 3.2 4.8 0.00 0.28 0.00 95 1010.6
20260507013038 11 77 3.2 8.0 0.00 0.28 0.00 94 1010.5
20260507012538 11 87 3.2 8.0 0.00 0.28 0.00 94 1010.5
20260507011538 11 277 0.0 0.0 0.00 0.28 0.00 94 1010.5
20260507011038 11 277 0.0 0.0 0.00 0.28 0.00 94 1010.5
20260507005538 11 277 1.6 3.2 0.00 0.28 0.00 93 1010.4
20260507005038 12 17 0.0 0.0 0.00 0.28 0.00 94 1010.5
20260507004538 12 17 1.6 3.2 0.00 0.28 0.00 94 1010.4
20260507004040 12 5 0.0 0.0 0.00 0.28 0.00 94 1010.4
20260507003038 12 143 0.0 0.0 0.00 0.28 0.00 93 1010.3
20260507002538 12 143 0.0 0.0 0.00 0.28 0.00 93 1010.3
20260507002038 12 54 0.0 0.0 0.00 0.28 0.00 93 1010.3
20260507001556 12 54 1.6 3.2 0.00 0.28 0.00 93 1010.3
20260507001038 12 54 0.0 4.8 0.00 0.28 0.00 92 1010.3
20260507000538 12 72 1.6 4.8 0.00 0.28 0.00 91 1010.4
20260507000039 12 72 1.6 4.8 0.00 0.28 0.00 91 1010.4